Location: Poughquag
(41.6090°N, 73.6820°W)
Time: 03:37:11
(UTC-04:00)

Transit 4A - Pass Details

Date: 05 June 2020
Orbit: 866 x 978 km, 66.8° (Epoch: 06 July)

Event Time Altitude Azimuth Distance (km) Brightness Sun altitude
Rises 00:30:17 0° 188° (S) 3,432 - -25.6°
Reaches altitude 10° 00:32:50 10° 182° (S) 2,501 - -25.6°
Maximum altitude 00:38:15 43° 112° (ESE) 1,201 - -25.7°
Exits shadow 00:38:21 43° 109° (ESE) 1,202 8.3 -25.7°
Drops below altitude 10° 00:43:47 10° 42° (NE) 2,554 10.7 -25.8°
Sets 00:46:24 0° 36° (NE) 3,512 11.7 -25.8°
